| time (UTC) | temp C | wind direction | speed KPH | gust KPH | rain 1hr cm | rain 24hr cm | rain mn cm | humidity % | barometer mb |
| 20260505140334 | 22 | 186 | 9.7 | 11.3 | 0.00 | 0.00 | 0.00 | 54 | 1012.5 |
| 20260505130257 | 18 | 120 | 3.2 | 3.2 | 0.00 | 0.00 | 0.00 | 65 | 1012.9 |
| 20260505124748 | 18 | 167 | 1.6 | 3.2 | 0.00 | 0.00 | 0.00 | 65 | 1012.6 |
| 20260505124245 | 18 | 164 | 6.4 | 6.4 | 0.00 | 0.00 | 0.00 | 65 | 1012.9 |
| 20260505123740 | 18 | 123 | 1.6 | 1.6 | 0.00 | 0.00 | 0.00 | 65 | 1012.9 |
| 20260505123237 | 18 | 152 | 3.2 | 4.8 | 0.00 | 0.00 | 0.00 | 66 | 1012.6 |
| 20260505122734 | 17 | 138 | 1.6 | 1.6 | 0.00 | 0.00 | 0.00 | 67 | 1012.7 |
| 20260505122231 | 17 | 117 | 0.0 | 1.6 | 0.00 | 0.00 | 0.00 | 70 | 1012.7 |
| 20260505121728 | 17 | 107 | 3.2 | 3.2 | 0.00 | 0.00 | 0.00 | 72 | 1012.7 |
| 20260505121224 | 16 | 124 | 3.2 | 3.2 | 0.00 | 0.00 | 0.00 | 74 | 1012.8 |
| 20260505120721 | 15 | 272 | 4.8 | 4.8 | 0.00 | 0.00 | 0.00 | 76 | 1013.1 |
| 20260505120217 | 15 | 124 | 1.6 | 1.6 | 0.00 | 0.00 | 0.00 | 78 | 1013.2 |
| 20260505115715 | 14 | 146 | 1.6 | 1.6 | 0.00 | 0.00 | 0.00 | 78 | 1012.9 |
| 20260505115213 | 14 | 130 | 1.6 | 1.6 | 0.00 | 0.00 | 0.00 | 77 | 1012.8 |
| 20260505114711 | 13 | 111 | 0.0 | 1.6 | 0.00 | 0.00 | 0.00 | 77 | 1012.7 |
| 20260505114206 | 13 | 88 | 1.6 | 1.6 | 0.00 | 0.00 | 0.00 | 75 | 1012.8 |
| 20260505113703 | 14 | 88 | 1.6 | 1.6 | 0.00 | 0.00 | 0.00 | 73 | 1012.6 |
| 20260505113200 | 15 | 116 | 1.6 | 1.6 | 0.00 | 0.00 | 0.00 | 72 | 1012.7 |
| 20260505112656 | 15 | 112 | 0.0 | 0.0 | 0.00 | 0.00 | 0.00 | 72 | 1012.9 |
| 20260505112154 | 15 | 167 | 4.8 | 6.4 | 0.00 | 0.00 | 0.00 | 72 | 1012.8 |
| 20260505111653 | 15 | 165 | 6.4 | 6.4 | 0.00 | 0.00 | 0.00 | 72 | 1012.9 |
| 20260505111149 | 15 | 182 | 4.8 | 4.8 | 0.00 | 0.00 | 0.00 | 71 | 1013.0 |
| 20260505110646 | 14 | 128 | 1.6 | 3.2 | 0.00 | 0.00 | 0.00 | 72 | 1013.1 |
| 20260505110143 | 14 | 169 | 4.8 | 6.4 | 0.00 | 0.00 | 0.00 | 73 | 1013.0 |
| 20260505102119 | 10 | 120 | 0.0 | 0.0 | 0.00 | 0.00 | 0.00 | 85 | 1013.1 |
| 20260505101617 | 10 | 111 | 0.0 | 0.0 | 0.00 | 0.00 | 0.00 | 85 | 1012.8 |
| 20260505101113 | 10 | 105 | 0.0 | 0.0 | 0.00 | 0.00 | 0.00 | 85 | 1012.8 |
| 20260505100610 | 10 | 94 | 1.6 | 1.6 | 0.00 | 0.00 | 0.00 | 84 | 1012.8 |
| 20260505100107 | 10 | 103 | 0.0 | 0.0 | 0.00 | 0.00 | 0.00 | 84 | 1012.7 |
| 20260505095603 | 10 | 107 | 0.0 | 0.0 | 0.00 | 0.00 | 0.00 | 84 | 1012.6 |
| 20260505095059 | 10 | 109 | 0.0 | 0.0 | 0.00 | 0.00 | 0.00 | 84 | 1012.8 |
| 20260505094556 | 10 | 154 | 1.6 | 1.6 | 0.00 | 0.00 | 0.00 | 84 | 1012.6 |
| 20260505094052 | 9 | 103 | 0.0 | 0.0 | 0.00 | 0.00 | 0.00 | 83 | 1012.3 |
| 20260505093549 | 9 | 132 | 1.6 | 1.6 | 0.00 | 0.00 | 0.00 | 83 | 1012.3 |
| 20260505093046 | 9 | 103 | 0.0 | 0.0 | 0.00 | 0.00 | 0.00 | 82 | 1012.2 |
| 20260505092543 | 9 | 116 | 0.0 | 0.0 | 0.00 | 0.00 | 0.00 | 82 | 1012.3 |
| 20260505092042 | 9 | 113 | 0.0 | 0.0 | 0.00 | 0.00 | 0.00 | 82 | 1011.9 |
| 20260505091538 | 9 | 147 | 1.6 | 3.2 | 0.00 | 0.00 | 0.00 | 81 | 1012.1 |
| 20260505091037 | 9 | 100 | 0.0 | 1.6 | 0.00 | 0.00 | 0.00 | 81 | 1012.1 |
| 20260505090534 | 9 | 100 | 0.0 | 0.0 | 0.00 | 0.00 | 0.00 | 80 | 1012.1 |
| 20260505090032 | 10 | 99 | 1.6 | 1.6 | 0.00 | 0.00 | 0.00 | 80 | 1012.3 |
| 20260505085529 | 10 | 105 | 1.6 | 1.6 | 0.00 | 0.00 | 0.00 | 79 | 1012.2 |
| 20260505085027 | 10 | 116 | 0.0 | 0.0 | 0.00 | 0.00 | 0.00 | 79 | 1012.2 |
| 20260505084525 | 10 | 111 | 0.0 | 0.0 | 0.00 | 0.00 | 0.00 | 78 | 1012.4 |
| 20260505084023 | 10 | 117 | 0.0 | 0.0 | 0.00 | 0.00 | 0.00 | 78 | 1012.3 |
| 20260505083520 | 10 | 144 | 1.6 | 1.6 | 0.00 | 0.00 | 0.00 | 78 | 1012.2 |
| 20260505083017 | 10 | 128 | 0.0 | 0.0 | 0.00 | 0.00 | 0.00 | 77 | 1012.4 |
| 20260505082512 | 10 | 133 | 1.6 | 1.6 | 0.00 | 0.00 | 0.00 | 76 | 1012.3 |
| 20260505082009 | 10 | 119 | 0.0 | 0.0 | 0.00 | 0.00 | 0.00 | 76 | 1012.3 |
| 20260505081506 | 11 | 119 | 0.0 | 0.0 | 0.00 | 0.00 | 0.00 | 75 | 1012.4 |
| 20260505081003 | 11 | 119 | 0.0 | 0.0 | 0.00 | 0.00 | 0.00 | 75 | 1012.2 |
| 20260505080500 | 11 | 121 | 0.0 | 0.0 | 0.00 | 0.00 | 0.00 | 74 | 1012.3 |
| 20260505075955 | 11 | 138 | 1.6 | 1.6 | 0.00 | 0.00 | 0.00 | 75 | 1012.4 |
| 20260505075452 | 11 | 108 | 0.0 | 1.6 | 0.00 | 0.00 | 0.00 | 74 | 1012.2 |
| 20260505074949 | 11 | 121 | 0.0 | 0.0 | 0.00 | 0.00 | 0.00 | 74 | 1012.4 |
| 20260505074446 | 11 | 135 | 0.0 | 1.6 | 0.00 | 0.00 | 0.00 | 73 | 1012.5 |
| 20260505073943 | 11 | 126 | 0.0 | 0.0 | 0.00 | 0.00 | 0.00 | 73 | 1012.4 |
| 20260505073441 | 11 | 121 | 0.0 | 0.0 | 0.00 | 0.00 | 0.00 | 72 | 1012.4 |
| 20260505072938 | 11 | 121 | 0.0 | 0.0 | 0.00 | 0.00 | 0.00 | 72 | 1012.4 |
| 20260505072434 | 11 | 131 | 0.0 | 0.0 | 0.00 | 0.00 | 0.00 | 71 | 1012.2 |
| 20260505071930 | 11 | 112 | 0.0 | 0.0 | 0.00 | 0.00 | 0.00 | 70 | 1012.3 |
| 20260505071426 | 11 | 108 | 0.0 | 0.0 | 0.00 | 0.00 | 0.00 | 69 | 1012.4 |
| 20260505070924 | 12 | 108 | 0.0 | 0.0 | 0.00 | 0.00 | 0.00 | 68 | 1012.4 |
| 20260505070421 | 12 | 130 | 0.0 | 1.6 | 0.00 | 0.00 | 0.00 | 67 | 1012.4 |
| 20260505065916 | 12 | 124 | 0.0 | 0.0 | 0.00 | 0.00 | 0.00 | 66 | 1012.2 |
| 20260505065413 | 12 | 123 | 0.0 | 0.0 | 0.00 | 0.00 | 0.00 | 65 | 1012.5 |
| 20260505064910 | 13 | 109 | 0.0 | 0.0 | 0.00 | 0.00 | 0.00 | 63 | 1012.4 |
| 20260505064407 | 13 | 117 | 0.0 | 0.0 | 0.00 | 0.00 | 0.00 | 62 | 1012.3 |
| 20260505063906 | 14 | 113 | 0.0 | 0.0 | 0.00 | 0.00 | 0.00 | 60 | 1012.4 |
| 20260505063402 | 15 | 134 | 0.0 | 1.6 | 0.00 | 0.00 | 0.00 | 59 | 1012.2 |
| 20260505062858 | 15 | 112 | 1.6 | 1.6 | 0.00 | 0.00 | 0.00 | 59 | 1012.4 |
| 20260505062355 | 15 | 121 | 1.6 | 1.6 | 0.00 | 0.00 | 0.00 | 59 | 1012.1 |
| 20260505061852 | 15 | 153 | 3.2 | 3.2 | 0.00 | 0.00 | 0.00 | 59 | 1012.2 |
| 20260505061350 | 15 | 150 | 3.2 | 3.2 | 0.00 | 0.00 | 0.00 | 60 | 1012.3 |
| 20260505060848 | 15 | 138 | 1.6 | 1.6 | 0.00 | 0.00 | 0.00 | 59 | 1012.3 |
| 20260505060344 | 15 | 121 | 0.0 | 1.6 | 0.00 | 0.00 | 0.00 | 58 | 1012.4 |
| 20260505055840 | 15 | 122 | 1.6 | 1.6 | 0.00 | 0.00 | 0.00 | 58 | 1012.2 |
| 20260505055336 | 15 | 137 | 3.2 | 3.2 | 0.00 | 0.00 | 0.00 | 58 | 1012.3 |
| 20260505054834 | 15 | 134 | 1.6 | 3.2 | 0.00 | 0.00 | 0.00 | 57 | 1012.3 |
| 20260505054331 | 15 | 131 | 0.0 | 1.6 | 0.00 | 0.00 | 0.00 | 57 | 1012.5 |
| 20260505053829 | 15 | 159 | 4.8 | 4.8 | 0.00 | 0.00 | 0.00 | 56 | 1012.4 |
| 20260505053326 | 16 | 162 | 3.2 | 3.2 | 0.00 | 0.00 | 0.00 | 56 | 1012.4 |
| 20260505052822 | 16 | 156 | 4.8 | 6.4 | 0.00 | 0.00 | 0.00 | 56 | 1012.5 |
| 20260505052319 | 16 | 171 | 4.8 | 4.8 | 0.00 | 0.00 | 0.00 | 56 | 1012.6 |
| 20260505051817 | 16 | 115 | 6.4 | 6.4 | 0.00 | 0.00 | 0.00 | 55 | 1012.5 |
| 20260505051314 | 16 | 188 | 8.0 | 11.3 | 0.00 | 0.00 | 0.00 | 55 | 1012.6 |
| 20260505050812 | 16 | 142 | 4.8 | 4.8 | 0.00 | 0.00 | 0.00 | 55 | 1012.4 |
| 20260505050310 | 16 | 124 | 4.8 | 6.4 | 0.00 | 0.00 | 0.00 | 55 | 1012.5 |
| 20260505041740 | 16 | 178 | 6.4 | 9.7 | 0.00 | 0.00 | 0.00 | 54 | 1012.8 |
| 20260505041237 | 16 | 122 | 3.2 | 3.2 | 0.00 | 0.00 | 0.00 | 54 | 1012.9 |
| 20260505040734 | 16 | 143 | 1.6 | 1.6 | 0.00 | 0.00 | 0.00 | 54 | 1012.7 |
| 20260505040232 | 16 | 145 | 4.8 | 6.4 | 0.00 | 0.00 | 0.00 | 53 | 1012.8 |
| 20260505035729 | 16 | 133 | 8.0 | 12.9 | 0.00 | 0.00 | 0.00 | 53 | 1013.0 |
| 20260505035224 | 16 | 170 | 4.8 | 6.4 | 0.00 | 0.00 | 0.00 | 53 | 1012.7 |
| 20260505034721 | 16 | 178 | 9.7 | 12.9 | 0.00 | 0.00 | 0.00 | 53 | 1012.7 |
| 20260505034218 | 16 | 194 | 8.0 | 11.3 | 0.00 | 0.00 | 0.00 | 53 | 1012.7 |
| 20260505033715 | 16 | 161 | 9.7 | 11.3 | 0.00 | 0.00 | 0.00 | 53 | 1012.7 |
| 20260505033213 | 16 | 133 | 6.4 | 9.7 | 0.00 | 0.00 | 0.00 | 53 | 1012.9 |
| 20260505032711 | 16 | 175 | 9.7 | 11.3 | 0.00 | 0.00 | 0.00 | 53 | 1012.9 |
| 20260505032206 | 16 | 155 | 9.7 | 11.3 | 0.00 | 0.00 | 0.00 | 53 | 1012.7 |
| 20260505031704 | 16 | 171 | 9.7 | 11.3 | 0.00 | 0.00 | 0.00 | 53 | 1012.8 |
| 20260505031200 | 16 | 166 | 11.3 | 12.9 | 0.00 | 0.00 | 0.00 | 53 | 1012.6 |
| 20260505030657 | 16 | 126 | 6.4 | 6.4 | 0.00 | 0.00 | 0.00 | 54 | 1012.8 |
| 20260505030152 | 16 | 160 | 8.0 | 9.7 | 0.00 | 0.00 | 0.00 | 54 | 1012.8 |
| 20260505025649 | 16 | 157 | 6.4 | 6.4 | 0.00 | 0.00 | 0.00 | 54 | 1013.0 |
| 20260505025147 | 16 | 163 | 3.2 | 6.4 | 0.00 | 0.00 | 0.00 | 54 | 1012.8 |
| 20260505024644 | 16 | 178 | 6.4 | 6.4 | 0.00 | 0.00 | 0.00 | 54 | 1012.6 |
| 20260505024141 | 16 | 169 | 6.4 | 6.4 | 0.00 | 0.00 | 0.00 | 54 | 1012.7 |
| 20260505023639 | 16 | 166 | 4.8 | 4.8 | 0.00 | 0.00 | 0.00 | 54 | 1012.7 |
| 20260505023136 | 16 | 190 | 8.0 | 11.3 | 0.00 | 0.00 | 0.00 | 54 | 1012.9 |
| 20260505022634 | 16 | 162 | 4.8 | 4.8 | 0.00 | 0.00 | 0.00 | 54 | 1012.9 |
| 20260505022130 | 16 | 164 | 3.2 | 3.2 | 0.00 | 0.00 | 0.00 | 54 | 1013.0 |
| 20260505021627 | 16 | 156 | 0.0 | 1.6 | 0.00 | 0.00 | 0.00 | 53 | 1012.9 |
| 20260505021124 | 16 | 199 | 6.4 | 6.4 | 0.00 | 0.00 | 0.00 | 53 | 1012.7 |
| 20260505020619 | 16 | 115 | 1.6 | 1.6 | 0.00 | 0.00 | 0.00 | 52 | 1012.7 |
| 20260505020116 | 17 | 158 | 6.4 | 6.4 | 0.00 | 0.00 | 0.00 | 52 | 1012.7 |
| 20260505015613 | 17 | 169 | 4.8 | 4.8 | 0.00 | 0.00 | 0.00 | 51 | 1012.9 |
| 20260505015110 | 17 | 182 | 8.0 | 9.7 | 0.00 | 0.00 | 0.00 | 51 | 1012.7 |
| 20260505014606 | 17 | 101 | 1.6 | 3.2 | 0.00 | 0.00 | 0.00 | 51 | 1012.9 |
| 20260505014103 | 17 | 176 | 4.8 | 6.4 | 0.00 | 0.00 | 0.00 | 50 | 1012.9 |
| 20260505013601 | 17 | 180 | 8.0 | 9.7 | 0.00 | 0.00 | 0.00 | 49 | 1012.6 |
| 20260505013058 | 17 | 178 | 4.8 | 9.7 | 0.00 | 0.00 | 0.00 | 49 | 1012.6 |
| 20260505012556 | 17 | 160 | 6.4 | 6.4 | 0.00 | 0.00 | 0.00 | 49 | 1012.5 |
| 20260505012053 | 17 | 161 | 8.0 | 9.7 | 0.00 | 0.00 | 0.00 | 49 | 1012.6 |
| 20260505011548 | 17 | 166 | 4.8 | 6.4 | 0.00 | 0.00 | 0.00 | 48 | 1012.5 |
| 20260505011046 | 18 | 158 | 4.8 | 4.8 | 0.00 | 0.00 | 0.00 | 47 | 1012.4 |
| 20260505010541 | 18 | 164 | 8.0 | 9.7 | 0.00 | 0.00 | 0.00 | 45 | 1012.3 |
| 20260505010038 | 18 | 161 | 3.2 | 3.2 | 0.00 | 0.00 | 0.00 | 44 | 1012.3 |
| 20260505005534 | 18 | 173 | 6.4 | 6.4 | 0.00 | 0.00 | 0.00 | 43 | 1012.1 |
| 20260505005032 | 18 | 171 | 4.8 | 4.8 | 0.00 | 0.00 | 0.00 | 43 | 1012.1 |
| 20260505004529 | 18 | 165 | 4.8 | 4.8 | 0.00 | 0.00 | 0.00 | 43 | 1011.9 |
| 20260505004025 | 18 | 169 | 3.2 | 3.2 | 0.00 | 0.00 | 0.00 | 42 | 1011.9 |
| 20260505003522 | 19 | 163 | 3.2 | 3.2 | 0.00 | 0.00 | 0.00 | 41 | 1011.7 |
| 20260505003020 | 19 | 135 | 3.2 | 3.2 | 0.00 | 0.00 | 0.00 | 40 | 1011.5 |
| 20260505002520 | 20 | 151 | 3.2 | 3.2 | 0.00 | 0.00 | 0.00 | 39 | 1011.6 |
| 20260505002020 | 20 | 156 | 3.2 | 3.2 | 0.00 | 0.00 | 0.00 | 39 | 1011.6 |
| 20260505001517 | 20 | 156 | 4.8 | 6.4 | 0.00 | 0.00 | 0.00 | 39 | 1011.4 |
| 20260505001014 | 20 | 133 | 3.2 | 3.2 | 0.00 | 0.00 | 0.00 | 38 | 1011.3 |
| 20260505000511 | 20 | 119 | 0.0 | 1.6 | 0.00 | 0.00 | 0.00 | 38 | 1011.2 |
| 20260505000009 | 20 | 154 | 3.2 | 3.2 | 0.00 | 0.00 | 0.00 | 38 | 1011.1 |
| 20260504235505 | 20 | 164 | 6.4 | 9.7 | 0.00 | 0.00 | 0.00 | 38 | 1011.0 |
| 20260504235001 | 20 | 125 | 0.0 | 0.0 | 0.00 | 0.00 | 0.00 | 37 | 1011.1 |
| 20260504234459 | 20 | 113 | 0.0 | 0.0 | 0.00 | 0.00 | 0.00 | 37 | 1010.9 |
| 20260504233956 | 20 | 118 | 0.0 | 0.0 | 0.00 | 0.00 | 0.00 | 37 | 1010.9 |
| 20260504233451 | 21 | 174 | 4.8 | 6.4 | 0.00 | 0.00 | 0.00 | 37 | 1011.0 |
| 20260504232948 | 21 | 133 | 1.6 | 1.6 | 0.00 | 0.00 | 0.00 | 37 | 1010.8 |
| 20260504232445 | 21 | 124 | 1.6 | 1.6 | 0.00 | 0.00 | 0.00 | 37 | 1010.6 |
| 20260504231943 | 21 | 229 | 11.3 | 14.5 | 0.00 | 0.00 | 0.00 | 36 | 1010.8 |
| 20260504231439 | 21 | 253 | 14.5 | 20.9 | 0.00 | 0.00 | 0.00 | 36 | 1010.9 |
| 20260504230935 | 21 | 202 | 8.0 | 11.3 | 0.00 | 0.00 | 0.00 | 36 | 1010.5 |
| 20260504230432 | 21 | 126 | 3.2 | 4.8 | 0.00 | 0.00 | 0.00 | 36 | 1010.7 |
| 20260504225931 | 21 | 222 | 3.2 | 6.4 | 0.00 | 0.00 | 0.00 | 35 | 1010.3 |
| 20260504225427 | 21 | 173 | 6.4 | 9.7 | 0.00 | 0.00 | 0.00 | 35 | 1010.5 |
| 20260504224925 | 21 | 217 | 11.3 | 12.9 | 0.00 | 0.00 | 0.00 | 35 | 1010.2 |
| 20260504224421 | 22 | 151 | 4.8 | 6.4 | 0.00 | 0.00 | 0.00 | 35 | 1010.2 |
| 20260504223919 | 22 | 230 | 4.8 | 9.7 | 0.00 | 0.00 | 0.00 | 34 | 1010.3 |
| 20260504223414 | 22 | 188 | 3.2 | 4.8 | 0.00 | 0.00 | 0.00 | 34 | 1010.2 |
| 20260504222910 | 22 | 190 | 9.7 | 14.5 | 0.00 | 0.00 | 0.00 | 34 | 1010.3 |
| 20260504222408 | 22 | 178 | 6.4 | 9.7 | 0.00 | 0.00 | 0.00 | 34 | 1010.3 |
| 20260504221906 | 22 | 157 | 6.4 | 11.3 | 0.00 | 0.00 | 0.00 | 34 | 1010.5 |
| 20260504221402 | 22 | 252 | 9.7 | 12.9 | 0.00 | 0.00 | 0.00 | 34 | 1010.5 |
| 20260504220859 | 22 | 176 | 4.8 | 6.4 | 0.00 | 0.00 | 0.00 | 34 | 1010.5 |
| 20260504220356 | 22 | 295 | 9.7 | 11.3 | 0.00 | 0.00 | 0.00 | 34 | 1010.6 |
| 20260504215853 | 22 | 219 | 9.7 | 12.9 | 0.00 | 0.00 | 0.00 | 34 | 1010.6 |
| 20260504215349 | 22 | 135 | 12.9 | 17.7 | 0.00 | 0.00 | 0.00 | 34 | 1010.5 |
| 20260504214846 | 22 | 104 | 4.8 | 6.4 | 0.00 | 0.00 | 0.00 | 34 | 1010.7 |
| 20260504214343 | 22 | 201 | 6.4 | 6.4 | 0.00 | 0.00 | 0.00 | 33 | 1010.7 |
| 20260504213839 | 22 | 173 | 6.4 | 12.9 | 0.00 | 0.00 | 0.00 | 34 | 1010.8 |
| 20260504213335 | 22 | 218 | 17.7 | 20.9 | 0.00 | 0.00 | 0.00 | 33 | 1010.9 |
| 20260504212833 | 22 | 197 | 16.1 | 17.7 | 0.00 | 0.00 | 0.00 | 33 | 1010.8 |
| 20260504212329 | 22 | 251 | 9.7 | 14.5 | 0.00 | 0.00 | 0.00 | 34 | 1010.8 |
| 20260504211827 | 22 | 200 | 9.7 | 12.9 | 0.00 | 0.00 | 0.00 | 33 | 1010.8 |
| 20260504211327 | 22 | 254 | 12.9 | 16.1 | 0.00 | 0.00 | 0.00 | 33 | 1010.8 |
| 20260504210825 | 23 | 170 | 3.2 | 4.8 | 0.00 | 0.00 | 0.00 | 34 | 1011.1 |
| 20260504210322 | 23 | 235 | 8.0 | 9.7 | 0.00 | 0.00 | 0.00 | 33 | 1011.1 |
| 20260504205819 | 22 | 200 | 9.7 | 20.9 | 0.00 | 0.00 | 0.00 | 33 | 1011.1 |
| 20260504205317 | 22 | 154 | 11.3 | 14.5 | 0.00 | 0.00 | 0.00 | 33 | 1011.0 |
| 20260504204815 | 22 | 244 | 8.0 | 9.7 | 0.00 | 0.00 | 0.00 | 33 | 1011.0 |
| 20260504204313 | 22 | 184 | 11.3 | 12.9 | 0.00 | 0.00 | 0.00 | 33 | 1011.0 |
| 20260504203812 | 22 | 217 | 6.4 | 6.4 | 0.00 | 0.00 | 0.00 | 34 | 1011.1 |
| 20260504203309 | 22 | 248 | 6.4 | 9.7 | 0.00 | 0.00 | 0.00 | 33 | 1011.1 |
| 20260504202804 | 22 | 244 | 9.7 | 11.3 | 0.00 | 0.00 | 0.00 | 33 | 1011.0 |
| 20260504202301 | 22 | 155 | 3.2 | 4.8 | 0.00 | 0.00 | 0.00 | 32 | 1011.0 |
| 20260504201758 | 22 | 229 | 3.2 | 4.8 | 0.00 | 0.00 | 0.00 | 34 | 1011.1 |
| 20260504201255 | 22 | 206 | 3.2 | 6.4 | 0.00 | 0.00 | 0.00 | 33 | 1011.2 |
| 20260504200753 | 22 | 236 | 12.9 | 14.5 | 0.00 | 0.00 | 0.00 | 33 | 1011.2 |
| 20260504200249 | 22 | 199 | 14.5 | 16.1 | 0.00 | 0.00 | 0.00 | 33 | 1011.5 |
| 20260504195746 | 22 | 159 | 4.8 | 6.4 | 0.00 | 0.00 | 0.00 | 33 | 1011.2 |
| 20260504195241 | 22 | 210 | 19.3 | 25.7 | 0.00 | 0.00 | 0.00 | 32 | 1011.5 |
| 20260504194739 | 22 | 120 | 6.4 | 11.3 | 0.00 | 0.00 | 0.00 | 32 | 1011.5 |
| 20260504194235 | 23 | 207 | 9.7 | 11.3 | 0.00 | 0.00 | 0.00 | 34 | 1011.5 |
| 20260504193731 | 22 | 164 | 4.8 | 4.8 | 0.00 | 0.00 | 0.00 | 34 | 1011.6 |
| 20260504193229 | 22 | 230 | 8.0 | 9.7 | 0.00 | 0.00 | 0.00 | 33 | 1011.5 |
| 20260504192727 | 21 | 248 | 14.5 | 17.7 | 0.00 | 0.00 | 0.00 | 32 | 1011.6 |
| 20260504192225 | 22 | 153 | 9.7 | 14.5 | 0.00 | 0.00 | 0.00 | 34 | 1011.8 |
| 20260504191723 | 22 | 218 | 12.9 | 17.7 | 0.00 | 0.00 | 0.00 | 35 | 1011.8 |
| 20260504191220 | 22 | 178 | 8.0 | 11.3 | 0.00 | 0.00 | 0.00 | 33 | 1011.7 |
| 20260504190715 | 22 | 255 | 9.7 | 11.3 | 0.00 | 0.00 | 0.00 | 32 | 1011.8 |
| 20260504190212 | 21 | 106 | 8.0 | 11.3 | 0.00 | 0.00 | 0.00 | 33 | 1012.0 |
| 20260504185708 | 21 | 165 | 6.4 | 9.7 | 0.00 | 0.00 | 0.00 | 34 | 1011.9 |
| 20260504185205 | 21 | 230 | 16.1 | 17.7 | 0.00 | 0.00 | 0.00 | 33 | 1012.2 |
| 20260504184701 | 21 | 207 | 9.7 | 11.3 | 0.00 | 0.00 | 0.00 | 33 | 1012.1 |
| 20260504184156 | 21 | 192 | 19.3 | 24.1 | 0.00 | 0.00 | 0.00 | 34 | 1012.1 |
| 20260504183653 | 21 | 176 | 8.0 | 9.7 | 0.00 | 0.00 | 0.00 | 33 | 1012.2 |
| 20260504183150 | 21 | 223 | 4.8 | 6.4 | 0.00 | 0.00 | 0.00 | 34 | 1012.2 |
| 20260504182648 | 21 | 271 | 11.3 | 16.1 | 0.00 | 0.00 | 0.00 | 34 | 1012.5 |
| 20260504182145 | 20 | 209 | 19.3 | 22.5 | 0.00 | 0.00 | 0.00 | 35 | 1012.5 |
| 20260504181643 | 21 | 216 | 14.5 | 17.7 | 0.00 | 0.00 | 0.00 | 34 | 1012.4 |
| 20260504181140 | 20 | 179 | 8.0 | 12.9 | 0.00 | 0.00 | 0.00 | 36 | 1012.5 |
| 20260504180639 | 20 | 163 | 9.7 | 12.9 | 0.00 | 0.00 | 0.00 | 35 | 1012.8 |
| 20260504180138 | 20 | 270 | 9.7 | 12.9 | 0.00 | 0.00 | 0.00 | 34 | 1012.6 |
| 20260504175634 | 20 | 244 | 12.9 | 14.5 | 0.00 | 0.00 | 0.00 | 35 | 1012.7 |
| 20260504175131 | 20 | 264 | 9.7 | 14.5 | 0.00 | 0.00 | 0.00 | 35 | 1012.7 |
| 20260504174630 | 21 | 215 | 12.9 | 16.1 | 0.00 | 0.00 | 0.00 | 35 | 1012.7 |
| 20260504174125 | 20 | 194 | 6.4 | 12.9 | 0.00 | 0.00 | 0.00 | 35 | 1012.8 |
| 20260504173623 | 20 | 137 | 3.2 | 4.8 | 0.00 | 0.00 | 0.00 | 37 | 1012.7 |
| 20260504173120 | 20 | 114 | 6.4 | 9.7 | 0.00 | 0.00 | 0.00 | 36 | 1012.8 |
| 20260504172616 | 20 | 223 | 6.4 | 9.7 | 0.00 | 0.00 | 0.00 | 36 | 1013.0 |
| 20260504172113 | 20 | 272 | 9.7 | 12.9 | 0.00 | 0.00 | 0.00 | 36 | 1012.9 |
| 20260504171609 | 20 | 186 | 6.4 | 11.3 | 0.00 | 0.00 | 0.00 | 36 | 1012.9 |
| 20260504171107 | 20 | 144 | 9.7 | 16.1 | 0.00 | 0.00 | 0.00 | 37 | 1013.2 |
| 20260504170602 | 20 | 228 | 9.7 | 14.5 | 0.00 | 0.00 | 0.00 | 36 | 1013.2 |
| 20260504150946 | 18 | 203 | 6.4 | 9.7 | 0.00 | 0.00 | 0.00 | 38 | 1014.3 |
| 20260504150443 | 17 | 160 | 3.2 | 4.8 | 0.00 | 0.00 | 0.00 | 38 | 1014.5 |